Location: ?????????
(53.2086°N, 54.0693°E)
Time: 14:24:30
(UTC+00:00)

USA 229 DEB - Pass Details

Date: 08 December 2019
Orbit: 995 x 1217 km, 63.4° (Epoch: 16 January)

Event Time Altitude Azimuth Distance (km) Brightness Sun altitude
Rises 13:58:26 0° 300° (WNW) 3,859 7.3 -15.6°
Reaches altitude 10° 14:01:13 10° 307° (NW) 2,935 6.5 -16.0°
Maximum altitude 14:07:50 43° 18° (NNE) 1,550 4.3 -16.9°
Enters shadow 14:11:29 26° 72° (ENE) 2,107 4.6 -17.4°
